User: anonymous   Login
Location: Wawayanda State Park
(41.1833°N, 74.4333°W)
Time: 15:53:22
(UTC-04:00)
Language:

RESURS DK-1 - Orbit

View from above orbital plane
View from above orbital plane
View from above satellite
View from above satellite

Ground track
Ground track

The orbit data is extracted from the following two-line orbital elements,

1 29228U 06021A   16152.51966110  .00000350  00000-0  34169-4 0  9991
2 29228  69.9380 348.9498 0006991 227.4145 132.6435 15.01911496550792
Epoch (UTC): 31 May 2016 12:28:18
Eccentricity: 0.0006991
inclination: 69.9380°
perigee height: 556 km
apogee height: 566 km
right ascension of ascending node: 348.9498°
argument of perigee: 227.4145°
revolutions per day: 15.01911496
mean anomaly at epoch: 132.6435°
orbit number at epoch: 55079

The dashed part of the orbit path shows where the satellite is in the earth's shadow,  

DLR